TimeCDT,TemperatureF,Dew PointF,Humidity,Sea Level PressureIn,VisibilityMPH,Wind Direction,Wind SpeedMPH,Gust SpeedMPH,PrecipitationIn,Events,Conditions,WindDirDegrees,DateUTC
12:15 AM,35.6,33.8,93,30.06,10.0,NNE,8.1,-,N/A,,Mostly Cloudy,20,2013-05-04 05:15:00
12:35 AM,35.6,33.8,93,30.07,10.0,NNE,8.1,-,N/A,,Overcast,30,2013-05-04 05:35:00
12:55 AM,35.6,33.8,93,30.07,10.0,NNE,8.1,-,N/A,,Overcast,30,2013-05-04 05:55:00
1:15 AM,35.6,33.8,93,30.07,10.0,NE,8.1,-,N/A,,Overcast,40,2013-05-04 06:15:00
1:35 AM,35.6,33.8,93,30.06,10.0,NE,6.9,-,N/A,,Overcast,40,2013-05-04 06:35:00
1:55 AM,35.6,33.8,93,30.06,10.0,NNE,9.2,-,N/A,,Overcast,30,2013-05-04 06:55:00
2:15 AM,37.4,35.6,93,30.06,10.0,NE,9.2,-,N/A,,Overcast,50,2013-05-04 07:15:00
2:35 AM,37.4,35.6,93,30.05,4.0,NE,11.5,-,N/A,Rain,Heavy Rain,40,2013-05-04 07:35:00
2:55 AM,37.4,35.6,93,30.05,5.0,NE,9.2,-,N/A,Rain,Light Rain,40,2013-05-04 07:55:00
3:15 AM,37.4,35.6,93,30.05,5.0,NE,8.1,-,N/A,Rain,Light Rain,40,2013-05-04 08:15:00
3:35 AM,37.4,35.6,93,30.04,10.0,NE,8.1,-,N/A,,Light Drizzle,40,2013-05-04 08:35:00
3:55 AM,37.4,35.6,93,30.04,10.0,NE,9.2,-,N/A,,Overcast,40,2013-05-04 08:55:00
4:15 AM,37.4,35.6,93,30.04,10.0,NE,9.2,-,N/A,,Overcast,40,2013-05-04 09:15:00
4:35 AM,37.4,35.6,93,30.04,10.0,NNE,8.1,-,N/A,,Mostly Cloudy,30,2013-05-04 09:35:00
4:55 AM,37.4,35.6,93,30.04,10.0,NE,5.8,-,N/A,,Mostly Cloudy,40,2013-05-04 09:55:00
5:15 AM,37.4,35.6,93,30.04,10.0,NE,6.9,-,N/A,,Overcast,40,2013-05-04 10:15:00
5:35 AM,37.4,35.6,93,30.05,10.0,NE,6.9,-,N/A,,Overcast,50,2013-05-04 10:35:00
5:55 AM,37.4,35.6,93,30.05,5.0,NE,9.2,-,N/A,,Overcast,50,2013-05-04 10:55:00
6:15 AM,37.4,35.6,93,30.05,1.5,NE,8.1,-,N/A,,Overcast,40,2013-05-04 11:15:00
6:35 AM,37.4,35.6,93,30.06,1.0,NE,5.8,-,N/A,,Overcast,40,2013-05-04 11:35:00
6:55 AM,37.4,37.4,100,30.08,1.5,NE,4.6,-,N/A,,Overcast,40,2013-05-04 11:55:00
7:15 AM,39.2,37.4,93,30.08,3.0,NNE,6.9,-,N/A,,Overcast,30,2013-05-04 12:15:00
7:35 AM,39.2,37.4,93,30.08,5.0,NE,6.9,-,N/A,,Overcast,40,2013-05-04 12:35:00
7:55 AM,39.2,37.4,93,30.08,5.0,NNE,8.1,-,N/A,,Mostly Cloudy,30,2013-05-04 12:55:00
8:15 AM,39.2,37.4,93,30.08,10.0,NE,6.9,-,N/A,,Mostly Cloudy,40,2013-05-04 13:15:00
8:35 AM,39.2,39.2,100,30.08,10.0,NNE,8.1,-,N/A,,Mostly Cloudy,30,2013-05-04 13:35:00
8:55 AM,41.0,39.2,93,30.08,10.0,NNE,8.1,-,N/A,,Overcast,30,2013-05-04 13:55:00
9:15 AM,41.0,39.2,93,30.09,10.0,NE,6.9,-,N/A,,Light Drizzle,40,2013-05-04 14:15:00
9:35 AM,42.8,39.2,87,30.09,10.0,NNE,6.9,-,N/A,Rain,Rain,30,2013-05-04 14:35:00
9:55 AM,42.8,39.2,87,30.09,10.0,NNE,9.2,-,N/A,,Mostly Cloudy,30,2013-05-04 14:55:00
10:15 AM,44.6,41.0,87,30.08,10.0,NNE,9.2,-,N/A,,Overcast,30,2013-05-04 15:15:00
10:35 AM,46.4,42.8,87,30.09,10.0,ENE,5.8,-,N/A,,Mostly Cloudy,60,2013-05-04 15:35:00
10:55 AM,46.4,42.8,87,30.09,10.0,NNE,6.9,-,N/A,,Overcast,30,2013-05-04 15:55:00
11:15 AM,48.2,44.6,87,30.09,10.0,ENE,6.9,-,N/A,,Mostly Cloudy,60,2013-05-04 16:15:00
11:35 AM,51.8,46.4,82,30.09,10.0,ENE,8.1,-,N/A,,Scattered Clouds,60,2013-05-04 16:35:00
11:55 AM,51.8,46.4,82,30.09,10.0,NE,5.8,-,N/A,,Mostly Cloudy,40,2013-05-04 16:55:00
12:15 PM,55.4,48.2,77,30.08,10.0,NE,3.5,-,N/A,,Mostly Cloudy,40,2013-05-04 17:15:00
12:35 PM,57.2,48.2,72,30.08,10.0,NE,5.8,-,N/A,,Scattered Clouds,40,2013-05-04 17:35:00
12:55 PM,59.0,50.0,72,30.08,10.0,ENE,5.8,-,N/A,,Clear,60,2013-05-04 17:55:00
1:15 PM,60.8,50.0,68,30.07,10.0,ENE,4.6,-,N/A,,Clear,60,2013-05-04 18:15:00
1:35 PM,60.8,51.8,72,30.07,10.0,ENE,4.6,-,N/A,,Clear,60,2013-05-04 18:35:00
1:55 PM,62.6,51.8,68,30.07,10.0,NNE,5.8,-,N/A,,Clear,30,2013-05-04 18:55:00
2:15 PM,64.4,53.6,68,30.06,10.0,NNE,5.8,-,N/A,,Clear,30,2013-05-04 19:15:00
2:35 PM,66.2,53.6,64,30.06,10.0,NNE,4.6,-,N/A,,Clear,20,2013-05-04 19:35:00
3:15 PM,66.2,51.8,60,30.04,10.0,Calm,Calm,-,N/A,,Clear,0,2013-05-04 20:15:00
3:35 PM,68.0,51.8,56,30.04,10.0,Calm,Calm,-,N/A,,Clear,0,2013-05-04 20:35:00
3:55 PM,69.8,51.8,53,30.03,10.0,NE,3.5,-,N/A,,Clear,40,2013-05-04 20:55:00
4:15 PM,69.8,51.8,53,30.03,10.0,North,3.5,-,N/A,,Scattered Clouds,350,2013-05-04 21:15:00
4:35 PM,71.6,46.4,41,30.03,10.0,SE,9.2,-,N/A,,Scattered Clouds,130,2013-05-04 21:35:00
4:55 PM,69.8,51.8,53,30.04,10.0,WNW,4.6,-,N/A,,Clear,300,2013-05-04 21:55:00
5:15 PM,66.2,53.6,64,30.04,10.0,NW,11.5,-,N/A,,Clear,310,2013-05-04 22:15:00
5:35 PM,64.4,51.8,64,30.05,10.0,NNW,9.2,-,N/A,,Clear,340,2013-05-04 22:35:00
5:55 PM,64.4,51.8,64,30.05,10.0,NNW,10.4,-,N/A,,Clear,340,2013-05-04 22:55:00
6:15 PM,64.4,51.8,64,30.05,10.0,NNW,9.2,-,N/A,,Clear,340,2013-05-04 23:15:00
6:35 PM,62.6,50.0,63,30.06,10.0,NW,9.2,-,N/A,,Clear,320,2013-05-04 23:35:00
6:55 PM,62.6,50.0,63,30.06,10.0,North,5.8,-,N/A,,Clear,360,2013-05-04 23:55:00
7:15 PM,62.6,50.0,63,30.07,10.0,North,6.9,-,N/A,,Clear,350,2013-05-05 00:15:00
7:35 PM,60.8,48.2,63,30.07,10.0,North,6.9,-,N/A,,Clear,360,2013-05-05 00:35:00
7:55 PM,59.0,48.2,67,30.08,10.0,North,4.6,-,N/A,,Clear,360,2013-05-05 00:55:00
8:15 PM,57.2,48.2,72,30.08,10.0,North,3.5,-,N/A,,Clear,360,2013-05-05 01:15:00
8:35 PM,55.4,48.2,77,30.09,10.0,NNW,4.6,-,N/A,,Clear,340,2013-05-05 01:35:00
8:55 PM,55.4,46.4,72,30.09,10.0,North,4.6,-,N/A,,Clear,10,2013-05-05 01:55:00
9:15 PM,55.4,46.4,72,30.10,10.0,NNE,4.6,-,N/A,,Clear,20,2013-05-05 02:15:00
9:35 PM,55.4,46.4,72,30.10,10.0,NNE,6.9,-,N/A,,Clear,20,2013-05-05 02:35:00
9:55 PM,53.6,46.4,77,30.10,10.0,North,5.8,-,N/A,,Clear,10,2013-05-05 02:55:00
10:15 PM,53.6,44.6,72,30.11,10.0,NNE,5.8,-,N/A,,Clear,20,2013-05-05 03:15:00
10:35 PM,51.8,44.6,76,30.10,10.0,NNE,4.6,-,N/A,,Clear,20,2013-05-05 03:35:00
10:55 PM,51.8,44.6,76,30.10,10.0,NNE,5.8,-,N/A,,Clear,30,2013-05-05 03:55:00
11:15 PM,51.8,44.6,76,30.10,10.0,NE,5.8,-,N/A,,Clear,50,2013-05-05 04:15:00
11:35 PM,51.8,44.6,76,30.11,10.0,NE,4.6,-,N/A,,Clear,40,2013-05-05 04:35:00
11:55 PM,50.0,44.6,82,30.11,10.0,NNE,3.5,-,N/A,,Clear,20,2013-05-05 04:55:00